Location: Unspecified
(35.6961°N, 0.0000°E)
Time: 21:53:52
(UTC+00:00)

Altair - Pass Details

Date: 21 May 2019
Orbit: 1501 x 1683 km, 47.2° (Epoch: 18 June)

Event Time Altitude Azimuth Distance (km) Brightness Sun altitude
Rises 02:00:51 0° 192° (SSW) 4,857 - -26.9°
Reaches altitude 10° 02:04:32 10° 182° (S) 3,894 - -26.5°
Exits shadow 02:08:23 22° 163° (SSE) 3,093 8.7 -26.1°
Maximum altitude 02:12:38 29° 127° (SE) 2,731 8.7 -25.6°
Drops below altitude 10° 02:20:48 10° 73° (ENE) 3,946 10.3 -24.6°
Sets 02:24:31 0° 63° (ENE) 4,932 11.2 -24.1°
